sat.trackr.live / text

‹ back to catalog

STARLINK-4123

NORAD 53539 · 2022-101N

PAYLOAD ACTIVE UNKNOWN

§ Identity

Operator
Country
US
Launch date
2022-08-19
Launch site
AFETR
Launch vehicle
Mass (kg)
RCS (m²)

Purposes: comms

External: N2YO · Heavens-Above · Gunter

§ Orbital elements

Epoch: 2026-09-19T15:34:53.795136Z

Period
93.85 min
Inclination
53.1608°
Eccentricity
0.0001033
Mean motion
15.34389853 rev/d
Perigee alt
462.0 km
Apogee alt
463.4 km
Semi-major
6,840.9 km
B*
2.2464e-5
RAAN
273.3497°
Arg perigee
101.5026°
Mean anomaly
258.6093°
Rev number
22,558

§ Raw data

STARLINK-41231 53539U 22101N   26262.64923374  .00000383  00000+0  22464-4 0  99922 53539  53.1608 273.3497 0001033 101.5026 258.6093 15.34389853225581

JSON: /api/v1/satellites/53539 · /tle

For live sub-satellite position, see the globe view (requires WebGL).

§ Visibility from observer

Set your observer location to see the next 7 days of passes ≥ 10°. The values pass through the URL so the page stays shareable.

No JS? Fill the form by hand. The geolocation button needs JavaScript.